Вернуться в каталог

STARLINK-35319

АктивенСвязьVLEO
NORAD 65743·PAYLOAD·🇺🇸 United States

Запущен Sep 25, 2025 с Cape Canaveral Space Force Station

Loading…

Ближайшие Пролёты (ближайшие 24 часа)

TLE

СвежийSource: CelesTrak SupGP

Эпоха: Sep 14, 2026, 22:50 UTC

1 65743C 25216K   26257.95187500 -.00068991  00000+0 -20376-2 0  2579
2 65743  53.1570 171.7903 0001229  97.3392  83.4861 15.34437567    19

Отслеживайте STARLINK-35319 в реальном времени с AllMySat

Download on the App Store